Voltar ao catálogo

PEGASUS DEB

AtivoPO
NORAD 25449·DEBRIS·🇺🇸 United States

Lançado May 19, 1994 de Vandenberg Space Force Base

Loading…

Próximas Passagens (próximas 24 horas)

TLE

AtualizadoSource: Space-Track

Época: Sep 14, 2026, 06:12 UTC

1 25449U 94029AED 26257.25870504  .00012840  00000-0  47761-2 0  9993
2 25449  82.0987 203.8769 0766258  61.7535 305.8775 13.32610307315781

Acompanhe PEGASUS DEB em tempo real com AllMySat

Download on the App Store